DAL5751 KLGA-KDCA

Flight info

Callsign DAL5751
Flight time 0h 47m
Altitude 30000
Route BIGGY Q75 MXE CLIPR3
Aircraft B739/M-SDE2E3FGHIRWXY/LB1

Departure

Time 2026-04-22 02:54
Airport LaGuardia Airport (KLGA)

Arrival

Time 2026-04-22 03:42
Airport Ronald Reagan Washington National Airport (KDCA)
Time Latitude Longitude Altitude Speed Heading
2026-04-22 02:27 40.77432 -73.87009 19 ft 0 kts 131°
2026-04-22 02:44 40.77434 -73.87011 19 ft 2 kts 131°
2026-04-22 02:44 40.77449 -73.87032 22 ft 2 kts 132°
2026-04-22 02:44 40.77458 -73.87052 22 ft 4 kts 67°
2026-04-22 02:45 40.77450 -73.87065 21 ft 3 kts 32°
2026-04-22 02:45 40.77473 -73.87047 19 ft 4 kts 32°
2026-04-22 02:45 40.77496 -73.87028 19 ft 4 kts 32°
2026-04-22 02:45 40.77518 -73.87009 19 ft 4 kts 32°
2026-04-22 02:46 40.77541 -73.86990 19 ft 4 kts 32°
2026-04-22 02:46 40.77554 -73.86980 20 ft 1 kts 32°
2026-04-22 02:49 40.77574 -73.86963 17 ft 9 kts 32°
2026-04-22 02:49 40.77639 -73.86984 13 ft 9 kts 312°
2026-04-22 02:50 40.77690 -73.86994 12 ft 7 kts 357°
2026-04-22 02:50 40.77743 -73.87069 13 ft 15 kts 303°
2026-04-22 02:50 40.77800 -73.87189 13 ft 15 kts 302°
2026-04-22 02:50 40.77855 -73.87304 13 ft 15 kts 302°
2026-04-22 02:51 40.77908 -73.87414 14 ft 14 kts 302°
2026-04-22 02:51 40.77962 -73.87528 15 ft 15 kts 302°
2026-04-22 02:51 40.78026 -73.87662 14 ft 19 kts 302°
2026-04-22 02:51 40.78091 -73.87798 17 ft 11 kts 302°
2026-04-22 02:52 40.78137 -73.87856 17 ft 8 kts 346°
2026-04-22 02:52 40.78195 -73.87860 18 ft 8 kts 16°
2026-04-22 02:52 40.78214 -73.87821 18 ft 4 kts 114°
2026-04-22 02:52 40.78208 -73.87809 19 ft 0 kts 122°
2026-04-22 02:53 40.78207 -73.87808 18 ft 0 kts 122°
2026-04-22 02:54 40.78192 -73.87775 18 ft 19 kts 122°
2026-04-22 02:54 40.77977 -73.87323 14 ft 96 kts 122°
2026-04-22 02:54 40.77501 -73.86344 38 ft 151 kts 127°
2026-04-22 02:54 40.76889 -73.85191 643 ft 156 kts 144°
2026-04-22 02:55 40.75904 -73.84657 1381 ft 154 kts 168°
2026-04-22 02:55 40.74855 -73.84312 2109 ft 160 kts 169°
2026-04-22 02:55 40.73687 -73.83904 2370 ft 190 kts 167°
2026-04-22 02:55 40.72495 -73.83044 2818 ft 210 kts 136°
2026-04-22 02:56 40.71863 -73.81185 3075 ft 239 kts 98°
2026-04-22 02:56 40.72111 -73.78964 3355 ft 265 kts 67°
2026-04-22 02:56 40.73240 -73.76986 3945 ft 272 kts 36°
2026-04-22 02:56 40.74810 -73.75731 5117 ft 262 kts 26°
2026-04-22 02:57 40.76404 -73.74538 6065 ft 265 kts 27°
2026-04-22 02:57 40.78010 -73.73299 6867 ft 270 kts 26°
2026-04-22 02:57 40.79631 -73.72010 7669 ft 273 kts 26°
2026-04-22 02:57 40.81322 -73.70919 8447 ft 268 kts
2026-04-22 02:58 40.83121 -73.70916 9274 ft 256 kts 339°
2026-04-22 02:58 40.84623 -73.72022 10194 ft 245 kts 313°
2026-04-22 02:58 40.85560 -73.73957 10556 ft 264 kts 290°
2026-04-22 02:58 40.85736 -73.76485 10742 ft 295 kts 267°
2026-04-22 02:59 40.85241 -73.79222 11059 ft 314 kts 259°
2026-04-22 02:59 40.84591 -73.82008 11657 ft 320 kts 258°
2026-04-22 02:59 40.83820 -73.84795 12355 ft 327 kts 252°
2026-04-22 02:59 40.82875 -73.87553 13062 ft 332 kts 250°
2026-04-22 03:00 40.81863 -73.90318 13781 ft 337 kts 249°
2026-04-22 03:00 40.80821 -73.93113 14469 ft 341 kts 249°
2026-04-22 03:00 40.79786 -73.95890 15155 ft 344 kts 249°
2026-04-22 03:00 40.78727 -73.98737 15900 ft 346 kts 249°
2026-04-22 03:01 40.77667 -74.01599 16664 ft 349 kts 250°
2026-04-22 03:01 40.76603 -74.04483 17375 ft 352 kts 250°
2026-04-22 03:01 40.75528 -74.07401 18074 ft 355 kts 250°
2026-04-22 03:01 40.74447 -74.10338 18710 ft 358 kts 250°
2026-04-22 03:02 40.73356 -74.13304 19293 ft 362 kts 250°
2026-04-22 03:02 40.72272 -74.16250 19844 ft 365 kts 250°
2026-04-22 03:02 40.71157 -74.19273 20430 ft 369 kts 250°
2026-04-22 03:02 40.70033 -74.22321 21014 ft 372 kts 250°
2026-04-22 03:03 40.68893 -74.25409 21573 ft 375 kts 250°
2026-04-22 03:03 40.67743 -74.28518 22146 ft 379 kts 250°
2026-04-22 03:03 40.66584 -74.31651 22689 ft 383 kts 250°
2026-04-22 03:03 40.65406 -74.34831 23254 ft 386 kts 250°
2026-04-22 03:04 40.64627 -74.36932 23624 ft 389 kts 250°
2026-04-22 03:04 40.63027 -74.41243 24290 ft 393 kts 250°
2026-04-22 03:04 40.62229 -74.43389 24611 ft 395 kts 250°
2026-04-22 03:04 40.60621 -74.47708 25259 ft 397 kts 250°
2026-04-22 03:05 40.59410 -74.50953 25900 ft 394 kts 250°
2026-04-22 03:05 40.58596 -74.53127 26426 ft 390 kts 250°
2026-04-22 03:05 40.57405 -74.56310 27165 ft 385 kts 250°
2026-04-22 03:05 40.56224 -74.59470 27779 ft 384 kts 250°
2026-04-22 03:06 40.55045 -74.62625 28369 ft 384 kts 250°
2026-04-22 03:06 40.53872 -74.65761 29020 ft 381 kts 250°
2026-04-22 03:06 40.52706 -74.68871 29702 ft 378 kts 250°
2026-04-22 03:06 40.51542 -74.71974 30239 ft 378 kts 250°
2026-04-22 03:07 40.50377 -74.75081 30256 ft 380 kts 250°
2026-04-22 03:07 40.48060 -74.81242 30285 ft 378 kts 250°
2026-04-22 03:08 40.45729 -74.87433 30296 ft 379 kts 249°
2026-04-22 03:08 40.43356 -74.93714 30279 ft 379 kts 249°
2026-04-22 03:09 40.40517 -74.99516 30268 ft 392 kts 234°
2026-04-22 03:09 40.36769 -75.04750 30273 ft 394 kts 233°
2026-04-22 03:10 40.33001 -75.09955 30267 ft 393 kts 233°
2026-04-22 03:10 40.29267 -75.15155 30274 ft 391 kts 234°
2026-04-22 03:11 40.25554 -75.20343 30274 ft 390 kts 234°
2026-04-22 03:11 40.21863 -75.25497 30301 ft 390 kts 234°
2026-04-22 03:12 40.18139 -75.30690 30296 ft 392 kts 234°
2026-04-22 03:12 40.14438 -75.35832 30277 ft 380 kts 234°
2026-04-22 03:12 40.12632 -75.38337 30283 ft 377 kts 234°
2026-04-22 03:13 40.09039 -75.43319 30152 ft 378 kts 234°
2026-04-22 03:13 40.07233 -75.45820 29815 ft 376 kts 234°
2026-04-22 03:13 40.05442 -75.48293 29357 ft 372 kts 234°
2026-04-22 03:14 40.03671 -75.50736 28920 ft 368 kts 234°
2026-04-22 03:14 40.01943 -75.53119 28493 ft 363 kts 234°
2026-04-22 03:14 40.00193 -75.55534 28042 ft 360 kts 234°
2026-04-22 03:14 39.98503 -75.57865 27615 ft 356 kts 234°
2026-04-22 03:15 39.96813 -75.60196 27187 ft 353 kts 234°
2026-04-22 03:15 39.95129 -75.62517 26757 ft 350 kts 234°
2026-04-22 03:15 39.93460 -75.64811 26347 ft 347 kts 234°
2026-04-22 03:15 39.91811 -75.67088 25697 ft 344 kts 236°
2026-04-22 03:16 39.90343 -75.69537 24894 ft 342 kts 242°
2026-04-22 03:16 39.89022 -75.72097 24178 ft 340 kts 244°
2026-04-22 03:16 39.87713 -75.74726 22925 ft 351 kts 244°
2026-04-22 03:16 39.86367 -75.77419 21753 ft 359 kts 243°
2026-04-22 03:17 39.84985 -75.80135 20883 ft 358 kts 243°
2026-04-22 03:17 39.83601 -75.82816 20146 ft 354 kts 242°
2026-04-22 03:17 39.82225 -75.85459 19415 ft 351 kts 242°
2026-04-22 03:17 39.80879 -75.88037 18685 ft 349 kts 242°
2026-04-22 03:18 39.79520 -75.90637 17911 ft 345 kts 242°
2026-04-22 03:18 39.78178 -75.93201 17262 ft 342 kts 242°
2026-04-22 03:18 39.76840 -75.95756 16757 ft 340 kts 242°
2026-04-22 03:18 39.75519 -75.98272 16318 ft 336 kts 242°
2026-04-22 03:19 39.74219 -76.00749 15888 ft 332 kts 242°
2026-04-22 03:19 39.72921 -76.03220 15468 ft 328 kts 242°
2026-04-22 03:19 39.71642 -76.05655 15049 ft 324 kts 242°
2026-04-22 03:19 39.70379 -76.08056 14651 ft 320 kts 242°
2026-04-22 03:20 39.69119 -76.10446 14250 ft 318 kts 242°
2026-04-22 03:20 39.67884 -76.12792 13994 ft 310 kts 242°
2026-04-22 03:20 39.66684 -76.15063 13830 ft 302 kts 243°
2026-04-22 03:20 39.65492 -76.17327 13697 ft 308 kts 242°
2026-04-22 03:21 39.64257 -76.19681 13581 ft 321 kts 242°
2026-04-22 03:21 39.62955 -76.22159 13451 ft 341 kts 242°
2026-04-22 03:21 39.61608 -76.24704 13282 ft 343 kts 241°
2026-04-22 03:21 39.60256 -76.27250 13133 ft 343 kts 241°
2026-04-22 03:22 39.58852 -76.29754 12980 ft 346 kts 234°
2026-04-22 03:22 39.56973 -76.31768 12844 ft 356 kts 219°
2026-04-22 03:22 39.54893 -76.33501 12703 ft 356 kts 219°
2026-04-22 03:22 39.52818 -76.35255 12567 ft 355 kts 219°
2026-04-22 03:23 39.50756 -76.37028 12410 ft 356 kts 220°
2026-04-22 03:23 39.48723 -76.38793 12272 ft 355 kts 220°
2026-04-22 03:23 39.46674 -76.40573 12133 ft 355 kts 220°
2026-04-22 03:23 39.44626 -76.42352 11989 ft 355 kts 220°
2026-04-22 03:24 39.42573 -76.44132 11852 ft 355 kts 219°
2026-04-22 03:24 39.40522 -76.45908 11706 ft 355 kts 219°
2026-04-22 03:24 39.38468 -76.47689 11552 ft 354 kts 219°
2026-04-22 03:24 39.36425 -76.49457 11409 ft 354 kts 219°
2026-04-22 03:25 39.34379 -76.51225 11264 ft 353 kts 219°
2026-04-22 03:25 39.32335 -76.52994 11116 ft 352 kts 219°
2026-04-22 03:25 39.30306 -76.54751 10974 ft 352 kts 219°
2026-04-22 03:25 39.28271 -76.56508 10821 ft 351 kts 219°
2026-04-22 03:26 39.26242 -76.58257 10657 ft 350 kts 219°
2026-04-22 03:26 39.24236 -76.59984 10506 ft 342 kts 219°
2026-04-22 03:26 39.22289 -76.61656 10361 ft 329 kts 219°
2026-04-22 03:26 39.20418 -76.63267 10217 ft 317 kts 219°
2026-04-22 03:27 39.18615 -76.64815 10085 ft 306 kts 220°
2026-04-22 03:27 39.16885 -76.66318 9996 ft 292 kts 223°
2026-04-22 03:27 39.15377 -76.67936 9987 ft 275 kts 229°
2026-04-22 03:27 39.13983 -76.69623 9622 ft 274 kts 230°
2026-04-22 03:28 39.12623 -76.71296 9437 ft 267 kts 230°
2026-04-22 03:28 39.11288 -76.72925 9268 ft 262 kts 230°
2026-04-22 03:28 39.09969 -76.74524 9103 ft 260 kts 230°
2026-04-22 03:28 39.08662 -76.76092 8928 ft 260 kts 230°
2026-04-22 03:29 39.07333 -76.77685 8723 ft 260 kts 229°
2026-04-22 03:29 39.06008 -76.79262 8564 ft 259 kts 229°
2026-04-22 03:29 39.04684 -76.80836 8400 ft 259 kts 229°
2026-04-22 03:29 39.03357 -76.82408 8224 ft 259 kts 229°
2026-04-22 03:30 39.02029 -76.83978 8046 ft 259 kts 229°
2026-04-22 03:30 39.00698 -76.85548 7869 ft 259 kts 229°
2026-04-22 03:30 38.99366 -76.87114 7715 ft 259 kts 229°
2026-04-22 03:30 38.98099 -76.88736 7502 ft 253 kts 240°
2026-04-22 03:31 38.97389 -76.90717 7354 ft 239 kts 260°
2026-04-22 03:31 38.97252 -76.92802 7222 ft 233 kts 275°
2026-04-22 03:31 38.97338 -76.94884 7046 ft 233 kts 274°
2026-04-22 03:31 38.97419 -76.96955 6901 ft 233 kts 274°
2026-04-22 03:32 38.97497 -76.99042 6735 ft 233 kts 273°
2026-04-22 03:32 38.97588 -77.01114 6570 ft 233 kts 278°
2026-04-22 03:32 38.98129 -77.03056 6439 ft 232 kts 297°
2026-04-22 03:32 38.99176 -77.04657 6261 ft 237 kts 313°
2026-04-22 03:33 39.00385 -77.06095 6183 ft 237 kts 312°
2026-04-22 03:33 39.01606 -77.07554 6048 ft 241 kts 312°
2026-04-22 03:33 39.02837 -77.09033 6026 ft 241 kts 312°
2026-04-22 03:33 39.04025 -77.10468 6002 ft 228 kts 311°
2026-04-22 03:34 39.05145 -77.11852 6020 ft 220 kts 311°
2026-04-22 03:34 39.06227 -77.13200 5969 ft 213 kts 311°
2026-04-22 03:34 39.07246 -77.14466 5966 ft 199 kts 311°
2026-04-22 03:34 39.08231 -77.15691 5982 ft 192 kts 310°
2026-04-22 03:35 39.09181 -77.16933 5951 ft 195 kts 302°
2026-04-22 03:35 39.09609 -77.18503 5763 ft 190 kts 268°
2026-04-22 03:35 39.09169 -77.20096 5519 ft 196 kts 237°
2026-04-22 03:35 39.08222 -77.21402 5223 ft 200 kts 229°
2026-04-22 03:36 39.07249 -77.22677 5100 ft 200 kts 230°
2026-04-22 03:36 39.06247 -77.23908 4837 ft 202 kts 215°
2026-04-22 03:36 39.04877 -77.24343 4643 ft 211 kts 181°
2026-04-22 03:36 39.03462 -77.23705 4249 ft 228 kts 152°
2026-04-22 03:37 39.02230 -77.22363 4006 ft 232 kts 144°
2026-04-22 03:37 39.01088 -77.20947 3914 ft 223 kts 143°
2026-04-22 03:37 38.99986 -77.19576 3760 ft 218 kts 144°
2026-04-22 03:37 38.98910 -77.18191 3481 ft 220 kts 142°
2026-04-22 03:38 38.97872 -77.16780 3319 ft 215 kts 142°
2026-04-22 03:38 38.96865 -77.15424 3164 ft 206 kts 142°
2026-04-22 03:38 38.95850 -77.14114 2661 ft 205 kts 144°
2026-04-22 03:38 38.94781 -77.12975 2299 ft 193 kts 150°
2026-04-22 03:39 38.93735 -77.11951 1978 ft 185 kts 152°
2026-04-22 03:39 38.92717 -77.11015 1758 ft 173 kts 153°
2026-04-22 03:39 38.91788 -77.10161 1559 ft 157 kts 150°
2026-04-22 03:39 38.91010 -77.09238 1397 ft 150 kts 135°
2026-04-22 03:40 38.90521 -77.08056 1194 ft 155 kts 116°
2026-04-22 03:40 38.90083 -77.06827 940 ft 140 kts 132°
2026-04-22 03:40 38.89369 -77.06069 773 ft 134 kts 150°
2026-04-22 03:40 38.88603 -77.05368 645 ft 137 kts 141°
2026-04-22 03:41 38.87880 -77.04557 498 ft 139 kts 141°
2026-04-22 03:41 38.87037 -77.03999 246 ft 135 kts 167°
2026-04-22 03:41 38.86120 -77.03874 55 ft 133 kts 173°
2026-04-22 03:41 38.85254 -77.03787 26 ft 107 kts 175°
2026-04-22 03:42 38.84729 -77.03733 24 ft 44 kts 175°
2026-04-22 03:42 38.84565 -77.03717 25 ft 19 kts 175°
2026-04-22 03:42 38.84423 -77.03725 25 ft 17 kts 208°
2026-04-22 03:42 38.84407 -77.03832 27 ft 12 kts 311°
2026-04-22 03:43 38.84427 -77.03843 24 ft 0 kts 352°
2026-04-22 03:43 38.84494 -77.03851 25 ft 20 kts 355°
2026-04-22 03:43 38.84660 -77.03868 25 ft 26 kts 355°
2026-04-22 03:44 38.84826 -77.03884 23 ft 17 kts 355°
2026-04-22 03:44 38.84876 -77.03928 25 ft 8 kts 298°
2026-04-22 03:44 38.84962 -77.03958 23 ft 15 kts 356°
2026-04-22 03:44 38.85067 -77.03968 26 ft 14 kts 355°
2026-04-22 03:45 38.85109 -77.04013 23 ft 7 kts 268°
2026-04-22 03:45 38.85120 -77.04067 26 ft 6 kts 315°
2026-04-22 03:45 38.85145 -77.04094 25 ft 3 kts 321°
2026-04-22 03:45 38.85148 -77.04097 24 ft 0 kts 321°